Regional Weather Roundup
Issued by NWS New Orleans/Baton Rouge, LA

Home | Current Version | Previous Version | Text Only | Print | Product List | Glossary On
Versions: 1 2 3 4 5 6 7 8 9 10 11 12 13 14 15 16 17 18 19 20 21 22 23 24 25 26 27 28 29 30 31 32 33 34 35 36 37 38 39 40 41 42 43 44 45 46 47 48 49 50
347
ASUS44 KLIX 300111
RWRLIX
NEW ORLEANS REGIONAL WEATHER ROUNDUP
NATIONAL WEATHER SERVICE NEW ORLEANS LA
800 PM CDT SUN MAR 29 2015

NOTE: "FAIR" INDICATES FEW OR NO CLOUDS BELOW 12,000 FEET WITH NO
      SIGNIFICANT WEATHER AND/OR OBSTRUCTIONS TO VISIBILITY.
      SKY/WX - SKY CONDITION AND SIGNIFICANT WEATHER.
      TMP - AIR TEMPERATURE.     DP    - DEWPOINT TEMPERATURE.
      RH  - RELATIVE HUMIDITY.   PRES  - PRESSURE.
      HI  - HEAT INDEX.          WCI   - WIND CHILL INDEX.

*  THESE STATIONS ARE NOT NWS OR FAA STATIONS AND ARE NOT UNDER
   NWS QUALITY CONTROL.

LAZ038-040-048-061>063-065>067-069-300200-
SOUTHEAST LOUISIANA

CITY           SKY/WX    TMP DP  RH WIND       PRES   REMARKS
N.O. AUDUBON   NOT AVBL
N.O. INTL ARPT PTCLDY    69  61  75 S10       30.21R
N.O. LAKEFRONT CLEAR     71  60  68 S12       30.21R
SLIDELL        MOCLDY    68  62  81 S10       30.20R
BATON ROUGE    CLEAR     72  58  61 SW17G25   30.17S
BOOTHVILLE     PTCLDY    68  62  81 SE8       30.23S
BELLE CHASSE   CLEAR     67  61  81 S8        30.21R
BOGALUSA*        N/A     69  59  71 SE10      30.21S
GALLIANO*      MOCLDY    71  64  77 CALM      30.22R
NEW ROADS*       N/A     71  58  63 S8        30.17R
GONZALES*        N/A     71  59  66 S5        30.19R
HAMMOND*       CLEAR     68  61  77 CALM      30.20R
HOUMA*         CLEAR     67  62  86 S6        30.21R
PORT FOURCHON* NOT AVBL

$$

MSZ070-080>082-300200-
SOUTHERN MISSISSIPPI

CITY           SKY/WX    TMP DP  RH WIND       PRES   REMARKS
MCCOMB         CLEAR     69  60  73 S12       30.16S
GULFPORT       CLOUDY    67  60  78 SE9       30.22F
BILOXI         CLOUDY    67  62  84 SE5       30.23R
PASCAGOULA     CLOUDY    65  59  81 SE8       30.24F

$$

COASTAL OBSERVATIONS
LAKE AND NEARSHORE STATIONS

STATION/POSITION TIME  TEMP    WIND        PRES    WAVE
                       AIR SEA DIR/SP/G            HT/PER
                 (UTC) (F)     (DEG/KT/KT) (MB)    (FT/S)
PASCAGOULA       0000   67     130/  6/ 11 1023.6
WAVELAND YACHT   0000   67 65  170/ 14/ 16 1022.9
GRAND ISLE       0000   69 70  150/  7/ 11 1023.0
SOUTHWEST PASS   0000   68 54  140/ 10/ 14 1023.7
NEW CANAL        0000          190/ 10/ 13 1022.9
SHELL BEACH      0000   69 69  160/ 14/ 17 1022.9

OFFSHORE STATIONS

STATION/POSITION TIME  TEMP    WIND        PRES    WAVE
                       AIR SEA DIR/SP/G            HT/PER
                 (UTC) (F)     (DEG/KT/KT) (MB)    (FT/S)
64 S DAUPHIN ISL 0050   69 71  170/ 16/ 19 1024.6    3/ 5

$$




USA.gov is the U.S. government's official web portal to all federal, state and local government web resources and services.